Location: Capelle
(50.3413°N, 1.9974°E)
Time: 21:03:30
(UTC+00:00)

Cosmos 2297 - Pass Details

Date: 12 January 2026
Orbit: 835 x 857 km, 71.0° (Epoch: 16 February)

Event Time Altitude Azimuth Distance (km) Brightness Sun altitude
Rises 17:26:05 0° 328° (NNW) 3,400 7.0 -11.2°
Reaches altitude 10° 17:28:32 10° 326° (NW) 2,463 6.3 -11.6°
Maximum altitude 17:34:07 64° 246° (WSW) 932 4.2 -12.4°
Drops below altitude 10° 17:39:41 10° 166° (SSE) 2,460 6.2 -13.2°
Sets 17:42:08 0° 164° (SSE) 3,394 6.9 -13.6°
